Regional Weather Roundup
Issued by NWS

Home | Current Version | Previous Version | Graphics & Text | Print | Product List | Glossary On
Versions: 1 2 3 4 5 6 7 8 9 10 11 12 13 14 15 16 17 18 19 20 21 22 23 24 25 26 27 28 29 30 31 32 33 34 35 36 37 38 39 40 41 42 43 44 45 46 47 48 49 50
000
ASUS43 KTOP 220459
RWRKS

WEATHER ROUNDUP FOR KANSAS
NATIONAL WEATHER SERVICE GOODLAND KS
1100 PM CST TUE FEB 21 2017

NOTE:  "FAIR" INDICATES FEW OR NO CLOUDS BELOW 12,000 FEET WITH NO
SIGNIFICANT WEATHER AND/OR OBSTRUCTIONS TO VISIBILITY.

KSZ001>006-013>018-027>032-041>047-220600-
NORTHWEST KANSAS

CITY           SKY/WX    TMP DP  RH WIND       PRES   REMARKS
GOODLAND       CLOUDY    55  18  23 SW14      29.85F
HAYS             N/A     49  26  41 SW8       29.85F
HILL CITY      CLOUDY    54  25  32 SW7       29.83F
RUSSELL        CLEAR     48  26  42 S13       29.83F
$$

KSZ061>065-074>080-084>089-220600-
SOUTHWEST KANSAS

CITY           SKY/WX    TMP DP  RH WIND       PRES   REMARKS
DODGE CITY     CLEAR     49  21  33 S8        29.90F
ELKHART          N/A     58  23  26 SW12        N/A
GARDEN CITY    CLEAR     48  21  34 SW9       29.90F
GREAT BEND     CLEAR     51  33  50 S12       29.88F
LIBERAL        CLEAR     48  21  34 SW9       29.94F
$$

KSZ066>073-081>083-090>101-220600-
SOUTHEAST KANSAS

CITY           SKY/WX    TMP DP  RH WIND       PRES   REMARKS
CHANUTE        CLEAR     45  38  76 CALM      29.92S
COFFEYVILLE    CLEAR     49  45  86 CALM      29.93F
HUTCHINSON     CLEAR     47  36  65 S6        29.90F
MEDICINE LODGE   N/A     51  35  54 SE6       29.91F
NEWTON         CLEAR     49  38  65 S12       29.91F
PARSONS        CLEAR     43  39  86 CALM      29.94S
WICHITA INTL   CLEAR     48  39  71 S5        29.92S
WICHITA JABRA  CLEAR     50  38  63 S8        29.91F
WINFIELD       CLEAR     49  41  74 SE3       29.94S
$$

KSZ007>012-019>026-033>040-048>060-102>105-220600-
NORTHEAST KANSAS

CITY           SKY/WX    TMP DP  RH WIND       PRES   REMARKS
CONCORDIA      CLEAR     55  35  47 S18       29.81F
EMPORIA        CLEAR     47  33  58 S10       29.90S
LAWRENCE       CLEAR     37  31  78 E3        29.89S
MANHATTAN      CLEAR     43  34  70 CALM      29.86F
OLATHE IND     CLEAR     48  36  63 S3        29.90F
OLATHE EXE     CLEAR     48  40  73 SW3       29.89F
SALINA         CLEAR     52  37  56 S10       29.86F
TOPEKA BILLARD CLEAR     45  36  70 NE3       29.87F
TOPEKA FORBES  CLEAR     47  32  56 S7        29.87F
$$




USA.gov is the U.S. government's official web portal to all federal, state and local government web resources and services.